Weather History for Emporia, VA

Change the Weather History Date:

Saturday, March 23, 2013

  Actual Average Record
Temperature  
Mean Temperature 40 °F -  
Max Temperature 55 °F 60 °F 82 °F (2007)
Min Temperature 24 °F 34 °F 17 °F (2004)
Degree Days  
Heating Degree Days 26    
Moisture  
Dew Point 26 °F    
Average Humidity 66    
Maximum Humidity 93    
Minimum Humidity 28    
Precipitation  
Precipitation 0.00 in - - ()
Sea Level Pressure  
Sea Level Pressure 30.01 in    
Wind  
Wind Speed 1 mph (West)    
Max Wind Speed 9 mph    
Max Gust Speed -    
Visibility 10 miles    
Events      
Averages and records for this station are not official NWS values.
T = Trace of Precipitation, MM = Missing Value Source: NWS Daily Summary

Daily Weather History Graph

Daily Weather History Graph

Search for Another Location

Airport:

Trip Planner

Search our weather history database for the weather conditions in past years. The results will help you decide how hot, cold, wet, or windy it might be!

Date:

Astronomy

Mar. 23, 2013 Rise Set
Actual Time 7:08 AM EDT 7:24 PM EDT
Civil Twilight 6:42 AM EDT 7:50 PM EDT
Nautical Twilight 6:12 AM EDT 8:20 PM EDT
Astronomical Twilight 5:42 AM EDT 8:51 PM EDT
Moon 3:54 PM EDT (3/23) 4:38 AM EDT (3/23)
Length of Visible Light 13h 07m
Length of Day
12h 15m
Waxing Gibbous, 85% of the Moon is Illuminated
Mar 23
Waxing Gibbous
Mar 27
Full
Apr 3
Last Quarter
Apr 10
New
Apr 18
First Quarter

Hourly Weather History & Observations

Time (EDT) Temp. Windchill Dew Point Humidity Pressure Visibility Wind Dir Wind Speed Gust Speed Precip Events Conditions
12:15 AM 26.6 °F - 21.2 °F 80% 30.02 in 10.0 mi Calm Calm - N/A   Clear
12:35 AM 28.4 °F - 23.0 °F 80% 30.02 in 10.0 mi Calm Calm - N/A   Clear
12:55 AM 28.4 °F - 23.0 °F 80% 30.03 in 10.0 mi Calm Calm - N/A   Clear
1:15 AM 26.6 °F - 23.0 °F 86% 30.02 in 10.0 mi Calm Calm - N/A   Clear
1:35 AM 28.4 °F - 23.0 °F 80% 30.02 in 10.0 mi Calm Calm - N/A   Clear
1:55 AM 28.4 °F - 23.0 °F 80% 30.02 in 10.0 mi Calm Calm - N/A   Clear
2:15 AM 26.6 °F - 23.0 °F 86% 30.02 in 10.0 mi Calm Calm - N/A   Clear
2:35 AM 26.6 °F - 23.0 °F 86% 30.02 in 10.0 mi Calm Calm - N/A   Clear
2:55 AM 24.8 °F - 23.0 °F 93% 30.02 in 10.0 mi Calm Calm - N/A   Clear
3:15 AM 26.6 °F - 23.0 °F 86% 30.02 in 10.0 mi Calm Calm - N/A   Clear
3:35 AM 28.4 °F - 23.0 °F 80% 30.02 in 10.0 mi Calm Calm - N/A   Clear
3:55 AM 28.4 °F - 24.8 °F 86% 30.02 in 10.0 mi Calm Calm - N/A   Clear
4:15 AM 26.6 °F - 23.0 °F 86% 30.02 in 10.0 mi Calm Calm - N/A   Clear
4:35 AM 26.6 °F - 23.0 °F 86% 30.02 in 10.0 mi Calm Calm - N/A   Clear
4:55 AM 26.6 °F 22.6 °F 23.0 °F 86% 30.02 in 10.0 mi NW 3.5 mph - N/A   Clear
5:15 AM 26.6 °F - 23.0 °F 86% 30.01 in 10.0 mi Calm Calm - N/A   Clear
5:35 AM 26.6 °F - 23.0 °F 86% 30.02 in 10.0 mi Calm Calm - N/A   Clear
5:55 AM 24.8 °F - 21.2 °F 86% 30.02 in 10.0 mi Calm Calm - N/A   Clear
6:15 AM 26.6 °F - 23.0 °F 86% 30.04 in 10.0 mi Calm Calm - N/A   Mostly Cloudy
6:35 AM 28.4 °F 23.3 °F 26.6 °F 93% 30.03 in 10.0 mi WNW 4.6 mph - N/A   Overcast
6:55 AM 30.2 °F 24.3 °F 26.6 °F 86% 30.03 in 10.0 mi NNW 5.8 mph - N/A   Overcast
7:15 AM 30.2 °F 26.7 °F 26.6 °F 86% 30.04 in 10.0 mi NW 3.5 mph - N/A   Overcast
7:35 AM 32.0 °F - 26.6 °F 80% 30.05 in 10.0 mi Calm Calm - N/A   Overcast
7:55 AM 32.0 °F 27.5 °F 26.6 °F 80% 30.05 in 10.0 mi NNW 4.6 mph - N/A   Overcast
8:15 AM 32.0 °F 27.5 °F 26.6 °F 80% 30.05 in 10.0 mi NNW 4.6 mph - N/A   Overcast
8:35 AM 32.0 °F - 26.6 °F 80% 30.06 in 10.0 mi Calm Calm - N/A   Overcast
9:15 AM 33.8 °F 29.6 °F 28.4 °F 81% 30.07 in 10.0 mi NW 4.6 mph - N/A   Overcast
9:35 AM 35.6 °F 32.8 °F 28.4 °F 75% 30.07 in 10.0 mi NW 3.5 mph - N/A   Overcast
9:55 AM 37.4 °F 34.9 °F 30.2 °F 75% 30.07 in 10.0 mi NNW 3.5 mph - N/A   Overcast
10:15 AM 37.4 °F 34.9 °F 30.2 °F 75% 30.07 in 10.0 mi NNE 3.5 mph - N/A   Overcast
10:35 AM 39.2 °F - 30.2 °F 70% 30.07 in 10.0 mi Calm Calm - N/A   Overcast
10:55 AM 39.2 °F - 32.0 °F 75% 30.08 in 10.0 mi Calm Calm - N/A   Overcast
11:15 AM 41.0 °F - 32.0 °F 70% 30.08 in 10.0 mi Calm Calm - N/A   Overcast
11:35 AM 42.8 °F - 30.2 °F 61% 30.07 in 10.0 mi Calm Calm - N/A   Overcast
11:55 AM 44.6 °F - 28.4 °F 53% 30.07 in 10.0 mi Calm Calm - N/A   Overcast
12:15 PM 46.4 °F 45.2 °F 26.6 °F 46% 30.06 in 10.0 mi ESE 3.5 mph - N/A   Scattered Clouds
12:35 PM 46.4 °F - 24.8 °F 43% 30.06 in 10.0 mi Calm Calm - N/A   Mostly Cloudy
12:55 PM 46.4 °F 45.2 °F 23.0 °F 40% 30.04 in 10.0 mi SE 3.5 mph - N/A   Overcast
1:15 PM 50.0 °F - 21.2 °F 32% 30.03 in 10.0 mi WSW 3.5 mph - N/A   Overcast
1:35 PM 50.0 °F - 23.0 °F 35% 30.03 in 10.0 mi West 3.5 mph - N/A   Overcast
1:55 PM 50.0 °F - 23.0 °F 35% 30.01 in 10.0 mi NW 4.6 mph - N/A   Overcast
2:15 PM 50.0 °F - 21.2 °F 32% 30.01 in 10.0 mi Calm Calm - N/A   Mostly Cloudy
2:35 PM 50.0 °F - 21.2 °F 32% 30.00 in 10.0 mi SSW 8.1 mph - N/A   Mostly Cloudy
2:55 PM 53.6 °F - 21.2 °F 28% 29.99 in 10.0 mi West 6.9 mph - N/A   Overcast
3:15 PM 53.6 °F - 21.2 °F 28% 29.97 in 10.0 mi WSW 9.2 mph - N/A   Mostly Cloudy
3:35 PM 53.6 °F - 23.0 °F 30% 29.97 in 10.0 mi SW 4.6 mph - N/A   Scattered Clouds
3:55 PM 55.4 °F - 23.0 °F 29% 29.96 in - NW 3.5 mph - N/A   Scattered Clouds
4:15 PM 55.4 °F - 24.8 °F 31% 29.95 in 10.0 mi SW 4.6 mph - N/A   Clear
4:35 PM 55.4 °F - 24.8 °F 31% 29.94 in 10.0 mi SSW 4.6 mph - N/A   Scattered Clouds
4:55 PM 55.4 °F - 26.6 °F 33% 29.94 in 10.0 mi WSW 6.9 mph - N/A   Mostly Cloudy
5:15 PM 55.4 °F - 26.6 °F 33% 29.95 in 10.0 mi WSW 3.5 mph - N/A   Scattered Clouds
5:35 PM 55.4 °F - 26.6 °F 33% 29.94 in 10.0 mi SW 3.5 mph - N/A   Scattered Clouds
5:55 PM 55.4 °F - 26.6 °F 33% 29.93 in 10.0 mi SSE 6.9 mph - N/A   Mostly Cloudy
6:15 PM 53.6 °F - 28.4 °F 38% 29.93 in 10.0 mi South 5.8 mph - N/A   Scattered Clouds
6:35 PM 53.6 °F - 26.6 °F 35% 29.93 in 10.0 mi South 4.6 mph - N/A   Clear
6:55 PM 53.6 °F - 26.6 °F 35% 29.93 in 10.0 mi Calm Calm - N/A   Clear
7:15 PM 51.8 °F - 26.6 °F 38% 29.94 in 10.0 mi Calm Calm - N/A   Clear
7:35 PM 50.0 °F - 28.4 °F 43% 29.94 in 10.0 mi ESE 3.5 mph - N/A   Clear
7:55 PM 42.8 °F - 28.4 °F 57% 29.94 in 10.0 mi Calm Calm - N/A   Clear
8:15 PM 42.8 °F - 32.0 °F 66% 29.94 in 10.0 mi Calm Calm - N/A   Clear
8:35 PM 41.0 °F - 30.2 °F 65% 29.95 in - Calm Calm - N/A   Clear
8:55 PM 39.2 °F - 32.0 °F 75% 29.96 in 10.0 mi Calm Calm - N/A   Clear
9:15 PM 37.4 °F - 32.0 °F 81% 29.97 in 10.0 mi Calm Calm - N/A   Clear
9:35 PM 35.6 °F - 30.2 °F 81% 29.97 in 10.0 mi Calm Calm - N/A   Clear
9:55 PM 35.6 °F - 32.0 °F 87% 29.97 in 10.0 mi Calm Calm - N/A   Clear
10:15 PM 35.6 °F - 32.0 °F 87% 29.99 in 10.0 mi Calm Calm - N/A   Clear
10:35 PM 35.6 °F - 32.0 °F 87% 29.99 in 10.0 mi Calm Calm - N/A   Clear
10:55 PM 33.8 °F - 30.2 °F 87% 30.00 in 10.0 mi Calm Calm - N/A   Clear
11:15 PM 35.6 °F - 30.2 °F 81% 30.00 in 10.0 mi Calm Calm - N/A   Clear
11:35 PM 33.8 °F - 30.2 °F 87% 29.99 in 10.0 mi Calm Calm - N/A   Clear
11:55 PM 33.8 °F - 32.0 °F 93% 29.98 in 10.0 mi Calm Calm - N/A   Clear